Home   Weather   Fort St. John   Past weeks

Flag for Canada Past Weather in Fort St. John, British Columbia, Canada — Yesterday and Last 2 Weeks

Now
68 °F

Broken clouds.


Feels Like: 68 °F
Forecast: 49 / 68 °F
Wind: 18 mph from Southwest

Location: Fort St John

Current Time: Aug 17, 2017 at 2:34:35 pm

Latest Report: Aug 17, 2017 at 1:00 pm


Visibility: 15 mi

Pressure: 29.89 "Hg (27.58 "Hg at 689m altitude)

Humidity: 43%

Dew Point: 45 °F

Location of Fort St. JohnLocation

Past Weather in Fort St. John — Graph

°F

Fort St. John Temperature Yesterday

Maximum temperature yesterday: 72 °F (at 3:00 pm)
Minimum temperature yesterday: 54 °F (at 1:00 am)
Average temperature yesterday: 61 °F

High & Low Weather Summary for the Past Weeks

 TemperatureHumidityPressure
High86 °F (Aug 11, 3:00 pm)100% (Aug 4, 1:00 am)30.29 "Hg (Aug 4, 1:00 am)
Low45 °F (Aug 15, 6:00 am)24% (Aug 11, 4:00 pm)29.59 "Hg (Aug 13, 4:00 am)
Average63 °F65%29.99 "Hg
* Reported Aug 2 1:00 pm — Aug 17 1:00 pm, Fort St. John. Weather by CustomWeather, © 2017

Note: Actual official high and low records may vary slightly from our data, if they occured in-between our weather recording intervals... More about our weather records

Advertising

Fort St. John Weather History for the Previous 24 Hours

Scroll right to see more
 ConditionsComfort  
Time TempWeatherWind HumidityBarometerVisibility
1:00 pm
Thu, Aug 17
68 °FBroken clouds.18 mph43%29.89 "Hg15 mi
12:00 pm68 °FBroken clouds.18 mph43%29.88 "Hg15 mi
11:00 am66 °FScattered clouds.16 mph49%29.91 "Hg15 mi
10:00 am63 °FPassing clouds.16 mph59%29.91 "Hg15 mi
9:00 am61 °FScattered clouds.15 mph59%29.92 "Hg15 mi
8:00 am57 °FScattered clouds.14 mph67%29.92 "Hg15 mi
7:00 am55 °FPartly sunny.12 mph72%29.91 "Hg15 mi
6:00 am52 °FPassing clouds.6 mph77%29.91 "Hg60 mi
5:00 am52 °FPassing clouds.9 mph77%29.90 "Hg35 mi
4:00 am54 °FPassing clouds.12 mph77%29.89 "Hg25 mi
3:00 am54 °FPassing clouds.8 mph77%29.88 "Hg35 mi
2:00 am57 °FPassing clouds.12 mph67%29.88 "Hg35 mi
1:00 am57 °FPassing clouds.8 mph67%29.87 "Hg35 mi
12:00 am57 °FPassing clouds.12 mph67%29.85 "Hg35 mi
11:00 pm
Wed, Aug 16
57 °FPassing clouds.9 mph67%29.85 "Hg35 mi
10:00 pm59 °FPassing clouds.10 mph63%29.84 "Hg35 mi
9:00 pm61 °FScattered clouds.10 mph59%29.84 "Hg60 mi
8:00 pm63 °FBroken clouds.12 mph56%29.83 "Hg60 mi
7:00 pm68 °FBroken clouds.14 mph43%29.81 "Hg60 mi
6:00 pm66 °FBroken clouds.17 mph46%29.82 "Hg60 mi
5:00 pm68 °FBroken clouds.21 mph43%29.80 "Hg15 mi
4:00 pm68 °FBroken clouds.16 mph43%29.80 "Hg15 mi
3:00 pm72 °FBroken clouds.14 mph47%29.79 "Hg15 mi
2:00 pm68 °FBroken clouds.16 mph49%29.80 "Hg15 mi
Weather by CustomWeather, © 2017

See weather overviewHow to use our weather pages